Lexington Weather

Lexington, Massachusetts, USA

46°F
10/26/2020 5:46am 
  • Lexington Conditions: Overcast
  • Temperature: 46.0°F / 7.8°CWarmer 0.9°F than last hour.
  • Dew Point: 40.8°FIncreased 1.1°Fsince last hour.
  • Relative Humidity: 82%Increased 1.0% since last hour.
  • Wind: Wind from S S Calm, 10-min avg: 1 mph, gust: 2 mph
  • Barometer: 30.27 in Steady
  • Visibility: 10 miles
  • Rain Today: 0.00 in
  •   

Regional Weather Roundup
for Boston / Norton, MA

        
000
ASUS41 KBOX 210904
RWRBOX

REGIONAL WEATHER ROUNDUP
NATIONAL WEATHER SERVICE BOSTON/NORTON MA
500 AM EDT WED OCT 21 2020

NOTE:  "FAIR" INDICATES FEW OR NO CLOUDS BELOW 12,000 FEET WITH NO 
SIGNIFICANT WEATHER AND/OR OBSTRUCTIONS TO VISIBILITY.

MAZALL-211000-
EASTERN MASSACHUSETTS
  
CITY           SKY/WX    TMP DP  RH WIND       PRES   REMARKS
BOSTON         DRZL/FOG  57  56  96 NE5       30.30S VSB 1/2          
BEVERLY        FOG       59  58  96 NE6       30.29S VSB 3/4          
LAWRENCE       CLOUDY    58  57  97 E6        30.31S FOG              
BEDFORD        FOG       59  59 100 E7        30.28S VSB 1            
BLUE HILL        N/A     56  56 100 NE8       30.28S                  
NORWOOD        CLOUDY    59  56  89 N3        30.29R FOG              
MARSHFIELD     FOG       59  59 100 NE5       30.29S VSB 1            
PLYMOUTH       CLOUDY    59  58  96 NE5       30.28S FOG              
TAUNTON        CLOUDY    61  59  93 CALM      30.28S FOG              
NEW BEDFORD    CLOUDY    60  60 100 CALM      30.27S FOG              
$$

MAZALL-211000-
CAPE COD AND THE ISLANDS
  
CITY           SKY/WX    TMP DP  RH WIND       PRES   REMARKS
FALMOUTH       FOG       61  61 100 CALM      30.28S VSB 1/4          
HYANNIS        FOG       62  62 100 CALM      30.27S VSB 1            
CHATHAM        CLOUDY    61  60  97 CALM      30.29S FOG              
PROVINCETOWN   FOG       58  58 100 NE3       30.30R VSB 1/2          
NANTUCKET      RAIN     N/A N/A N/A CALM      30.28S VSB 1            
MARTHAS VNYRD  FOG       62  62 100 S3        30.28R VSB 1/4          
$$
 
MAZALL-211000-
CENTRAL AND WESTERN MASSACHUSETTS
  
CITY           SKY/WX    TMP DP  RH WIND       PRES   REMARKS
WORCESTER      FOG       58  56  93 NE3       30.29S VSB 1/4          
FITCHBURG      FOG       59  59 100 NE5       30.30R VSB 1/4          
ORANGE         CLOUDY    57  56  96 CALM      30.29S                  
SPRINGFIELD    FOG       60  60 100 CALM      30.26S VSB 1/2          
WESTFIELD      FOG       58  58 100 CALM      30.27S VSB 1/2          
NORTH ADAMS    CLOUDY    61  57  87 E8        30.25S                  
PITTSFIELD     CLOUDY    57  55  93 N3        30.25F                  
$$
 
RIZALL-211000-
RHODE ISLAND
  
CITY           SKY/WX    TMP DP  RH WIND       PRES   REMARKS
PROVIDENCE     FOG       60  60 100 NE3       30.28S VSB 1/2          
NEWPORT        CLOUDY    60  60 100 CALM      30.27S FOG              
BLOCK ISLAND   FOG       60  59  96 E3        30.28S VSB 3/4          
SMITHFIELD     FOG       58  58 100 CALM        N/A  VSB 1/2          
WESTERLY       CLOUDY    60  59  96 CALM      30.28R FOG              
$$
 
CTZALL-211000-
CONNECTICUT
  
CITY           SKY/WX    TMP DP  RH WIND       PRES   REMARKS
BRADLEY INTL   FOG       59  58  96 CALM      30.26S VSB 1/4          
HARTFORD       CLOUDY    60  58  92 CALM      30.26F FOG              
BRIDGEPORT     CLOUDY    62  62 100 CALM      30.26S FOG              
DANBURY        CLOUDY    60  59  96 VRB3      30.27S FOG              
GROTON         CLOUDY    62  61  96 CALM      30.27S                  
NEW HAVEN      FOG       63  63 100 CALM      30.26F VSB 1/4          
CHESTER        FOG       61  61 100 CALM      30.28S VSB 1/4          
MERIDEN        FOG       59  58  96 CALM      30.26F VSB 1/2          
WILLIMANTIC    CLOUDY    59  59 100 S3        30.27S FOG              
OXFORD         FOG       60  60 100 SE6       30.27F VSB 1/4          
$$

MEZ002-015-021-024-NHZ003-005-008-011-012-014-VTZ005-008-211000-
NORTHERN NEW ENGLAND
  
CITY           SKY/WX    TMP DP  RH WIND       PRES   REMARKS
PORTLAND ME    CLOUDY    53  50  89 NE8       30.34R                  
BANGOR ME      CLOUDY    47  43  86 NE13      30.39S                  
CONCORD NH     LGT RAIN  56  54  93 E3        30.31S FOG              
MANCHESTER NH  CLOUDY    58  55  90 E6        30.30R FOG              
NASHUA NH      CLOUDY    58  58 100 E6        30.31R FOG              
PORTSMOUTH NH  CLOUDY    56  55  97 NE9       30.31                   
JAFFREY NH     FOG       57  55  93 CALM      30.30S VSB 1            
KEENE NH       CLOUDY    55  52  89 CALM      30.28F                  
BURLINGTON VT  CLOUDY    47  45  93 CALM      30.25F                  
MT. WASHINGTON DRZL/FOG  43  43 100 SW22G32     N/A  VSB 0            
$$

NYZ052-076-211000-
EASTERN NEW YORK
  
CITY           SKY/WX    TMP DP  RH WIND       PRES   REMARKS
ALBANY         CLOUDY    47  46  97 CALM      30.27F                  
NEW YORK CITY  FOG       62  60  93 SE6       30.25S VSB 1            
$$
 
ANZALL-211000-
MARINE OBSERVATIONS
  
STATION/POSITION TIME  TEMP    WIND        PRES    VSBY  WAVE
                       AIR SEA DIR/SP/G                  HT/PER
                 (UTC) (F)     (DEG/KT/KT) (MB)    (MI)  (FT/S)
BOSTON BUOY      0750   58 58   60/  8/ 10 1024.4          2/ 9
BUZZARDS BAY     0800           50/  4/  5 1026.0F
NANTUCKET SOUND  0850      61  180/  2/  4   N/A           1/ 6
MASS BAY-STELLWA 0804   58 57   80/ 10/ 12 1025.1F  1 7/8  3/11
ISLE OF SHOALS   0800   56      50/ 10/ 11 1025.9R
S OF BLOCK IS    0826      62                N/A           3/ 9
$$

......................KEY.........................
  SKY/WX - SKY CONDITION/PRESENT WEATHER
  TMP    - TEMPERATURE IN FAHRENHEIT
  DWPT   - DEWPOINT IN FAHRENHEIT
  RH     - RELATIVE HUMIDITY IN PERCENT
  WIND   - DIRECTION AND SPEED IN MPH
  PRES   - MEAN SEA LEVEL PRESSURE IN INCHES OF HG
  WCI    - WIND CHILL INDEX
  VSB    - VISIBILITY IN MILES
  HX     - HEAT INDEX
  TC     - TEMPERATURE IN CELSIUS
  VRB    - VARIABLE WIND DIRECTION
  N/A    - NOT AVAILABLE
  
      

Other recent Regional Weather Roundups

Mon Oct 26, 5:04am

Mon Oct 26, 4:04am

Mon Oct 26, 3:04am

Mon Oct 26, 2:04am

Mon Oct 26, 1:04am

Mon Oct 26, 12:04am

Sun Oct 25, 11:05pm

Sun Oct 25, 10:04pm

Sun Oct 25, 9:04pm

Sun Oct 25, 8:04pm

Sun Oct 25, 7:04pm

Sun Oct 25, 6:04pm

Sun Oct 25, 5:04pm

Sun Oct 25, 4:05pm

Sun Oct 25, 3:04pm

Sun Oct 25, 2:04pm

Sun Oct 25, 1:04pm

Sun Oct 25, 12:04pm

Sun Oct 25, 11:04am

Sun Oct 25, 10:04am

Sun Oct 25, 9:04am

Sun Oct 25, 8:04am

Sun Oct 25, 7:04am

Sun Oct 25, 6:04am

Sun Oct 25, 5:04am

Sun Oct 25, 4:04am

Sun Oct 25, 3:04am

Sun Oct 25, 2:04am

Sun Oct 25, 1:05am

Sun Oct 25, 12:04am

Sat Oct 24, 11:04pm

Sat Oct 24, 10:04pm

Sat Oct 24, 9:04pm

Sat Oct 24, 8:04pm

Sat Oct 24, 7:04pm

Sat Oct 24, 6:04pm

Sat Oct 24, 5:05pm

Sat Oct 24, 4:04pm

Sat Oct 24, 3:04pm

Sat Oct 24, 2:04pm

Sat Oct 24, 1:05pm

Sat Oct 24, 12:04pm

Sat Oct 24, 11:05am

Sat Oct 24, 10:05am

Sat Oct 24, 9:04am

Sat Oct 24, 8:04am

Sat Oct 24, 7:04am

Sat Oct 24, 6:04am

Sat Oct 24, 5:04am

Sat Oct 24, 4:04am

Sat Oct 24, 3:04am

Sat Oct 24, 2:04am

Sat Oct 24, 1:05am

Sat Oct 24, 12:04am

Fri Oct 23, 11:04pm

Fri Oct 23, 10:04pm

Fri Oct 23, 9:04pm

Fri Oct 23, 8:05pm

Fri Oct 23, 7:04pm

Fri Oct 23, 6:04pm

Fri Oct 23, 5:05pm

Fri Oct 23, 4:04pm

Fri Oct 23, 3:04pm

Fri Oct 23, 2:05pm

Fri Oct 23, 1:04pm

Fri Oct 23, 12:04pm

Fri Oct 23, 11:04am

Fri Oct 23, 10:04am

Fri Oct 23, 9:04am

Fri Oct 23, 8:04am

Fri Oct 23, 7:04am

Fri Oct 23, 6:04am

Fri Oct 23, 5:04am

Fri Oct 23, 4:04am

Fri Oct 23, 3:04am

Fri Oct 23, 2:04am

Fri Oct 23, 1:04am

Fri Oct 23, 12:04am

Thu Oct 22, 11:04pm

Thu Oct 22, 10:04pm

Thu Oct 22, 9:05pm

Thu Oct 22, 8:04pm

Thu Oct 22, 7:05pm

Thu Oct 22, 6:04pm

Thu Oct 22, 5:04pm

Thu Oct 22, 4:05pm

Thu Oct 22, 3:04pm

Thu Oct 22, 2:05pm

Thu Oct 22, 1:04pm

Thu Oct 22, 12:04pm

Thu Oct 22, 11:04am

Thu Oct 22, 10:05am

Thu Oct 22, 9:04am

Thu Oct 22, 8:05am

Thu Oct 22, 7:04am

Thu Oct 22, 6:04am

Thu Oct 22, 5:04am

Thu Oct 22, 4:04am

Thu Oct 22, 3:04am

Thu Oct 22, 2:04am

Thu Oct 22, 1:04am

Thu Oct 22, 12:04am

Wed Oct 21, 11:05pm

Wed Oct 21, 10:04pm

Wed Oct 21, 9:04pm

Wed Oct 21, 8:04pm

Wed Oct 21, 7:04pm

Wed Oct 21, 6:04pm

Wed Oct 21, 5:05pm

Wed Oct 21, 4:04pm

Wed Oct 21, 3:04pm

Wed Oct 21, 2:05pm

Wed Oct 21, 1:04pm

Wed Oct 21, 12:04pm

Wed Oct 21, 11:04am

Wed Oct 21, 10:04am

Wed Oct 21, 9:04am

Wed Oct 21, 8:04am

Wed Oct 21, 7:04am

Wed Oct 21, 6:04am

Wed Oct 21, 4:04am

Wed Oct 21, 3:04am

Wed Oct 21, 2:04am

Wed Oct 21, 1:04am

Wed Oct 21, 12:04am

Tue Oct 20, 11:05pm

Tue Oct 20, 10:04pm

Tue Oct 20, 9:04pm

Tue Oct 20, 8:05pm

Tue Oct 20, 7:04pm

Tue Oct 20, 6:04pm

Tue Oct 20, 5:05pm

Tue Oct 20, 4:04pm

Tue Oct 20, 3:05pm

Tue Oct 20, 2:07pm

Tue Oct 20, 1:04pm

Tue Oct 20, 12:04pm

Tue Oct 20, 11:04am

Tue Oct 20, 10:05am

Tue Oct 20, 9:04am

Tue Oct 20, 8:04am

Tue Oct 20, 7:04am

Tue Oct 20, 6:04am

Tue Oct 20, 5:04am

Tue Oct 20, 4:04am

Tue Oct 20, 3:04am

Tue Oct 20, 2:04am

Tue Oct 20, 1:04am

Tue Oct 20, 12:04am

Mon Oct 19, 11:04pm

Mon Oct 19, 10:04pm

Mon Oct 19, 9:04pm

Mon Oct 19, 8:04pm

Mon Oct 19, 7:04pm

Mon Oct 19, 6:04pm

Mon Oct 19, 5:04pm

Mon Oct 19, 4:04pm

Mon Oct 19, 3:04pm

Mon Oct 19, 2:04pm

Mon Oct 19, 1:05pm

Mon Oct 19, 12:04pm

Mon Oct 19, 11:04am

Mon Oct 19, 10:04am

Mon Oct 19, 9:04am

Mon Oct 19, 8:04am

Mon Oct 19, 7:04am

Mon Oct 19, 6:04am

Mon Oct 19, 5:04am

Meta data:

ID: 4e713bf2-7668-4285-a5e9-812735f7233a
Link: https://api.weather.gov/products/4e713bf2-7668-4285-a5e9-812735f7233a